Wind_Speed
34 31 28 26 25 25 26 26 26 25 24 22 20 19 17 16 15 16 16 16 16 16 16 17 17 17 15 14 13 11 10 6
37 35 31 28 26 24 26 26 26 25 23 22 20 19 17 16 15 16 16 16 17 17 16 16 16 16 14 13 11 9 5 7
38 37 35 31 29 27 26 26 26 25 24 22 21 20 19 18 17 17 17 17 18 18 17 17 16 16 14 12 9 5 5 8
39 38 37 34 30 30 29 29 28 27 26 25 24 20 21 19 19 18 18 18 19 18 18 17 17 14 13 13 9 8 6 8
32 38 38 37 30 34 29 28 27 29 28 28 22 21 21 21 21 22 21 21 21 21 20 20 19 14 13 12 11 12 7 7
29 33 38 38 29 34 28 27 27 26 28 30 24 24 24 22 19 22 22 23 21 23 21 21 20 20 16 15 16 13 11 10
31 31 36 39 36 31 28 27 28 27 28 31 27 25 26 24 21 20 20 20 20 20 19 22 22 22 22 21 19 19 18 15
32 33 36 38 39 35 32 29 28 29 29 32 34 28 26 25 24 24 21 19 19 19 19 19 20 20 23 24 23 20 19 19
35 36 36 38 38 36 35 29 29 30 28 34 36 34 29 27 24 25 24 22 21 20 19 20 18 19 20 19 23 24 22 21
34 35 36 37 37 33 32 29 33 31 30 32 36 35 33 32 25 26 26 26 24 22 21 19 18 18 17 18 19 20 22 24
33 37 39 42 41 33 32 29 34 30 30 30 36 36 36 33 29 27 29 27 26 23 21 20 18 18 17 17 18 18 19 19
31 34 42 41 38 37 31 30 30 29 29 29 34 37 37 36 32 30 31 28 26 25 24 21 22 17 17 18 18 19 19 20
29 32 35 36 35 35 34 34 32 31 31 31 34 37 38 39 36 33 34 31 30 30 28 26 19 22 17 18 20 23 28 26
28 31 33 38 35 34 34 34 36 35 33 33 39 39 39 40 39 37 35 32 32 31 30 26 24 18 18 15 17 17 19 18
27 29 34 36 39 35 30 28 30 30 34 36 38 40 38 40 40 39 35 36 32 35 34 32 24 22 26 19 12 12 11 13
23 26 29 33 37 40 39 35 35 37 35 35 35 40 42 42 42 41 41 38 36 32 33 33 30 23 19 24 26 21 18 18
18 23 25 26 30 37 39 36 34 27 26 29 37 39 42 43 44 43 43 43 38 38 35 35 28 26 24 19 17 20 22 24
12 16 21 23 25 29 34 39 35 31 32 37 34 28 30 39 40 41 41 40 42 42 40 39 38 30 26 23 24 20 18 18
7 2 11 15 20 23 26 28 28 31 27 24 22 25 30 36 39 42 42 44 42 42 41 41 39 36 34 26 24 25 23 20
21 9 10 7 7 16 20 21 22 21 22 23 23 22 22 21 27 26 27 34 41 45 45 42 39 38 35 33 28 24 25 26
Wind_Direction
175 177 182 180 182 184 185 185 186 185 184 180 179 177 176 175 174 174 174 172 171 169 166 162 160 156 151 149 144 142 141 160
178 180 182 182 184 187 188 187 188 186 184 182 181 180 179 179 178 176 179 179 177 175 171 168 167 166 163 160 159 159 153 181
183 183 184 183 185 188 190 191 189 188 187 186 183 185 183 183 185 181 183 185 183 181 179 177 175 176 180 178 173 186 198 195
187 187 186 185 185 188 190 192 192 191 190 188 189 188 186 185 190 188 188 189 189 189 188 189 186 194 199 198 193 208 191 203
189 190 190 188 185 188 187 191 192 193 193 193 188 191 191 188 193 192 194 193 195 196 199 199 201 203 210 212 220 218 221 218
194 194 193 192 190 190 187 189 191 192 196 197 196 194 198 191 194 195 196 200 200 202 206 208 213 215 216 223 227 228 235 236
200 197 198 196 196 191 191 192 194 195 199 202 200 198 201 198 197 196 200 204 205 207 208 214 220 223 228 233 239 243 242 246
202 202 202 200 202 201 199 197 200 200 204 206 206 203 208 205 205 206 205 207 209 211 214 218 224 227 234 237 242 246 252 252
206 203 205 204 205 207 206 205 205 207 208 212 213 211 213 209 209 213 213 212 212 216 220 222 226 230 235 243 246 250 252 255
208 205 206 207 209 209 209 209 212 213 214 219 219 217 218 217 215 219 219 219 221 221 223 226 229 233 240 243 249 249 255 256
214 211 208 211 212 210 212 212 217 216 217 220 225 223 222 223 220 223 224 224 224 224 226 227 232 235 241 246 247 249 252 255
217 215 217 213 211 211 214 215 220 218 221 222 228 228 227 228 225 225 228 226 227 227 228 232 234 238 245 252 254 254 254 253
217 214 213 210 209 209 212 215 220 222 223 225 229 232 231 232 229 232 232 229 230 236 236 234 238 242 249 258 264 265 263 256
219 215 212 214 213 215 218 221 225 228 229 229 233 235 233 231 233 233 235 231 231 231 235 234 240 233 239 255 265 268 264 262
223 219 222 229 225 217 220 221 227 228 231 233 234 233 233 235 235 232 234 236 232 236 237 238 230 235 243 232 253 258 273 264
230 224 220 228 231 230 223 222 224 227 231 234 235 238 237 237 236 236 235 238 237 235 236 237 235 231 235 240 241 247 255 270
227 226 223 220 223 229 234 231 231 230 233 235 240 242 244 241 240 239 238 238 240 239 240 241 237 236 236 245 245 247 252 254
240 217 228 227 227 230 232 241 236 234 236 246 240 239 240 242 239 240 241 241 242 245 245 245 247 242 243 240 245 246 248 251
41 273 223 223 233 234 238 238 238 238 238 243 242 246 251 251 245 242 244 247 247 246 246 248 247 246 248 245 246 249 250 247
63 91 122 181 217 237 244 244 241 246 247 241 243 247 244 242 249 255 258 253 252 251 249 248 248 250 248 250 248 244 255 266
Height
1517 1523 1528 1532 1536 1539 1543 1547 1551 1554 1556 1558 1561 1563 1565 1567 1569 1571 1574 1576 1578 1579 1581 1582 1584 1585 1586 1587 1588 1589 1593 1595
1517 1522 1527 1531 1535 1540 1544 1547 1551 1554 1556 1559 1561 1563 1565 1568 1570 1572 1574 1576 1578 1580 1582 1583 1585 1586 1587 1589 1590 1591 1594 1595
1517 1521 1525 1530 1534 1538 1543 1547 1550 1553 1556 1559 1561 1563 1565 1567 1569 1572 1574 1576 1578 1580 1582 1584 1585 1587 1588 1589 1590 1592 1593 1595
1515 1520 1523 1528 1532 1537 1542 1546 1549 1552 1555 1557 1560 1562 1564 1567 1569 1571 1574 1576 1578 1580 1582 1583 1585 1587 1587 1588 1589 1591 1591 1594
1515 1518 1522 1526 1530 1533 1538 1543 1547 1550 1553 1555 1559 1560 1563 1565 1567 1569 1572 1574 1576 1578 1580 1582 1583 1587 1589 1588 1589 1589 1591 1592
1515 1517 1520 1524 1528 1531 1536 1540 1543 1547 1550 1552 1556 1557 1559 1563 1566 1568 1570 1572 1574 1576 1578 1579 1581 1582 1584 1585 1586 1587 1589 1590
1513 1516 1518 1522 1525 1530 1534 1538 1540 1544 1547 1549 1553 1556 1557 1560 1564 1567 1569 1571 1573 1574 1576 1577 1578 1579 1581 1582 1583 1584 1585 1586
1508 1512 1514 1518 1522 1526 1529 1533 1537 1540 1543 1546 1549 1553 1555 1558 1560 1563 1566 1569 1571 1572 1574 1575 1576 1577 1578 1579 1580 1581 1582 1582
1501 1505 1510 1514 1518 1522 1526 1530 1533 1536 1540 1542 1545 1549 1551 1555 1558 1559 1562 1565 1567 1569 1571 1572 1574 1575 1575 1576 1576 1577 1578 1578
1497 1499 1504 1509 1514 1519 1523 1527 1529 1533 1536 1538 1540 1544 1547 1551 1554 1556 1559 1561 1563 1566 1568 1569 1571 1573 1574 1574 1574 1574 1574 1575
1491 1493 1496 1501 1507 1514 1518 1522 1524 1529 1532 1533 1535 1539 1543 1546 1550 1552 1554 1557 1559 1562 1564 1566 1568 1569 1571 1571 1571 1571 1572 1572
1486 1489 1491 1496 1502 1508 1514 1517 1519 1523 1527 1529 1531 1534 1538 1541 1544 1547 1549 1552 1555 1557 1559 1562 1563 1566 1567 1568 1568 1568 1568 1568
1479 1483 1486 1492 1496 1500 1506 1508 1513 1517 1520 1523 1526 1528 1532 1535 1539 1541 1544 1546 1550 1552 1554 1557 1559 1561 1563 1563 1563 1562 1561 1561
1474 1476 1479 1483 1490 1495 1500 1503 1505 1509 1513 1516 1519 1522 1525 1528 1532 1536 1537 1540 1543 1546 1548 1552 1554 1557 1558 1561 1560 1560 1559 1557
1468 1470 1472 1476 1483 1489 1494 1497 1500 1502 1504 1507 1510 1514 1518 1522 1525 1529 1531 1533 1537 1539 1542 1545 1548 1549 1550 1556 1557 1556 1555 1555
1465 1468 1469 1471 1476 1481 1484 1486 1490 1492 1496 1500 1503 1506 1510 1514 1517 1520 1524 1526 1530 1533 1535 1538 1541 1545 1545 1544 1547 1551 1552 1551
1460 1463 1465 1468 1469 1473 1477 1480 1486 1492 1494 1494 1496 1500 1502 1505 1509 1512 1515 1519 1522 1526 1529 1530 1534 1538 1541 1542 1541 1542 1545 1546
1452 1456 1460 1464 1465 1467 1469 1473 1478 1484 1486 1486 1491 1494 1497 1497 1501 1504 1508 1511 1515 1518 1521 1524 1526 1530 1533 1536 1537 1537 1537 1540
1450 1452 1456 1461 1463 1465 1467 1472 1476 1478 1482 1483 1485 1487 1487 1487 1491 1496 1499 1502 1506 1509 1511 1514 1517 1519 1523 1527 1529 1531 1532 1532
1450 1449 1449 1454 1458 1463 1466 1468 1470 1472 1474 1477 1480 1482 1484 1484 1482 1487 1490 1496 1494 1500 1502 1504 1506 1508 1512 1515 1518 1521 1523 1524